[[{"header":{"parameterUnit":"m.s-1","parameterCategory":1,"la1":30.2991,"la2":30.254,"lo1":-89.0895,"lo2":-89.0444,"dy":0.0017,"dx":0.0017,"nx":28,"ny":28,"refTime":"2023-10-31T03:00:00:Z","depth":0,"parameterNumber":2,"parameterNumberName":"U-component_of_WINDS"},"data":[0,0,0,0,0,0,0,0,0,0,0,0,0,0,0,0,0,0,0,0,0,0,0,0,0,0,0,0,0,0,0,0,0,0,0,0,0,0,0,0,0,0,0,0,0,0,0,0,0,0,0,0,0,0,0,0,0,0,-4.1276,-4.1276,0,-4.1327,-4.1328,-4.1328,-4.119,-4.1186,-4.1182,-4.1178,-4.1229,-4.1234,-4.124,0,0,0,0,0,0,0,0,0,0,0,0,0,-4.1056,-4.1061,-4.1276,-4.1277,-4.1277,-4.1327,-4.1328,-4.1328,-4.1191,-4.1186,-4.1181,-4.1176,-4.1227,-4.1234,-4.124,0,0,0,0,0,0,0,0,0,0,0,0,0,-4.1134,-4.1063,-4.1276,-4.1215,-4.121,-4.1327,-4.1328,-4.1329,-4.1192,-4.1186,-4.1179,-4.1173,-4.1225,-4.1233,-4.1241,-4.1419,0,0,-4.1266,-4.1269,0,0,0,0,0,0,0,0,-4.113,-4.1142,-4.1223,-4.1219,-4.1214,-4.1246,-4.1269,-4.1359,-4.1194,-4.1199,-4.1178,-4.117,-4.124,-4.1246,-4.127,-4.1422,-4.1424,-4.1266,-4.1271,-4.1275,-4.1277,0,0,0,0,0,0,0,-4.1125,-4.1139,-4.1296,-4.1224,-4.1219,-4.1184,-4.1188,-4.1285,-4.1255,-4.1198,-4.1188,-4.1196,-4.1236,-4.1262,-4.127,-4.1425,-4.1266,-4.1273,-4.1278,-4.1281,-4.1722,-4.1729,0,0,0,0,0,0,-4.1127,-4.1136,-4.1294,-4.1297,-4.1155,-4.1193,-4.1197,-4.1242,-4.1253,-4.1249,-4.1201,-4.1189,-4.1252,-4.1261,-4.1271,-4.1479,-4.1275,-4.1282,-4.1287,-4.1715,-4.1724,-4.1731,0,0,0,0,0,0,-4.1123,-4.1143,-4.1292,-4.1214,-4.123,-4.1204,-4.1255,-4.1246,-4.1273,-4.1256,-4.125,-4.1234,-4.1247,-4.126,-4.1383,-4.1479,-4.1286,-4.1293,-4.1707,-4.1718,-4.1728,-4.1897,0,0,0,0,0,0,-4.1117,-4.1142,-4.1211,-4.1217,-4.1235,-4.1405,-4.1261,-4.1252,-4.1287,-4.1272,-4.1285,-4.1281,-4.1243,-4.1372,-4.1391,-4.1486,-4.1299,-4.1699,-4.1712,-4.1724,-4.1883,-4.1912,-4.1937,0,0,0,0,0,-4.111,-4.1257,-4.1215,-4.1235,-4.132,-4.141,-4.1421,-4.1374,-4.1295,-4.1363,-4.1352,-4.1281,-4.1466,-4.1386,-4.1406,-4.1505,-4.1692,-4.1708,-4.1723,-4.1871,-4.1906,-4.1936,0,0,0,0,0,0,-4.1263,-4.1256,-4.121,-4.1363,-4.1388,-4.1387,-4.1471,-4.1414,-4.1462,-4.1446,-4.1385,-4.139,-4.1523,-4.1526,-4.1438,-4.1677,-4.1565,-4.1586,-4.167,-4.1704,-4.173,-4.1727,-4.1306,0,0,0,0,0,-4.1314,-4.1389,-4.1379,-4.1515,-4.153,-4.1499,-4.1536,-4.1498,-4.1522,-4.1532,-4.153,-4.1555,-4.1618,-4.1661,-4.1719,-4.1883,-4.1882,-4.1961,-4.1988,-4.201,-4.2028,-4.2113,-4.2147,-4.1782,-4.1782,-4.1782,0,0,-4.1421,-4.1427,-4.1478,-4.1545,-4.156,-4.1638,-4.1509,-4.1597,-4.1653,-4.1545,-4.166,-4.166,-4.1684,-4.1828,-4.1891,-4.1834,-4.2129,-4.203,-4.2048,-4.2054,-4.2132,-4.2167,-4.2198,-4.1793,-4.1791,-4.1789,0,0,-4.1655,-4.1668,-4.1781,-4.1799,-4.1824,-4.1802,-4.1829,-4.1836,-4.1832,-4.1947,-4.1867,-4.1932,-4.2044,-4.2063,-4.2088,-4.2328,-4.2263,-4.2348,-4.2489,-4.2573,-4.2601,-4.2626,-4.271,-4.2741,-4.2366,-4.2367,-4.2367,0,-4.1785,-4.1899,-4.1847,-4.194,-4.1971,-4.1877,-4.199,-4.201,-4.2052,-4.2075,-4.2012,-4.2147,-4.2157,-4.2303,-4.2361,-4.2385,-4.2413,-4.2346,-4.2602,-4.2626,-4.2649,-4.2728,-4.276,-4.2377,-4.2376,-4.2375,-4.2374,0,-4.2057,-4.2137,-4.2226,-4.2268,-4.2309,-4.2413,-4.2375,-4.2423,-4.2381,-4.2365,-4.2482,-4.249,-4.2547,-4.2579,-4.2539,-4.2719,-4.2683,-4.2612,-4.2498,-4.2695,-4.2768,-4.2798,-4.2391,-4.2388,-4.2385,-4.2382,0,0,-4.2389,-4.24,-4.2434,-4.2451,-4.247,-4.2531,-4.2629,-4.2684,-4.2725,-4.2757,-4.2837,-4.2932,-4.2865,-4.2894,-4.2855,-4.2928,-4.3115,-4.2847,-4.2847,-4.2896,-4.3312,-4.3365,-4.3401,-4.3073,-4.3079,-4.3083,-4.3309,0,-4.2619,-4.2787,-4.2742,-4.2909,-4.2981,-4.2892,-4.2977,-4.2997,-4.2985,-4.3044,-4.303,-4.3098,-4.3006,-4.3022,-4.309,-4.3078,-4.3198,-4.3061,-4.3145,-4.3149,-4.3141,-4.3439,-4.3496,-4.3709,-4.3338,-4.3343,-4.3346,0,-4.2909,-4.2952,-4.3127,-4.3132,-4.3161,-4.3238,-4.3284,-4.3342,-4.3362,-4.3348,-4.3379,-4.3325,-4.342,-4.3306,-4.3435,-4.3343,-4.3374,-4.3373,-4.338,-4.3385,-4.3259,-4.3451,-4.3776,-4.3807,-4.3391,-4.3388,-4.3384,0,-4.3132,-4.3233,-4.335,-4.3368,-4.3378,-4.3434,-4.344,-4.3455,-4.349,-4.353,-4.3552,-4.3603,-4.3631,-4.367,-4.3631,-4.3552,-4.3765,-4.3648,-4.3755,-4.3756,-4.3803,-4.38,-4.4136,-4.3826,-4.3825,-4.3825,-4.3824,0,-4.3393,-4.3503,-4.345,-4.3522,-4.3642,-4.3588,-4.3708,-4.3704,-4.3718,-4.3786,-4.3712,-4.3778,-4.3722,-4.3783,-4.3752,-4.3862,-4.3876,-4.3866,-4.3856,-4.3872,-4.3873,-4.3891,-4.3874,-4.3833,-4.3831,-4.383,-4.3828,0,-4.3662,-4.3631,-4.3752,-4.3751,-4.3754,-4.3842,-4.384,-4.3906,-4.3888,-4.3975,-4.3993,-4.3964,-4.4031,-4.3996,-4.4066,-4.4045,-4.4187,-4.4158,-4.418,-4.4172,-4.428,-4.427,-4.4637,-4.4682,-4.4345,-4.4348,-4.4351,0,-4.3829,-4.3912,-4.3919,-4.396,-4.3971,-4.4038,-4.4073,-4.4024,-4.4063,-4.4092,-4.4154,-4.4215,-4.426,-4.4372,-4.4357,-4.4409,-4.4379,-4.4505,-4.4387,-4.4399,-4.4379,-4.4374,-4.4381,-4.4528,-4.4532,-4.4536,-4.4538,0,-4.413,-4.411,-4.4164,-4.4213,-4.4258,-4.4294,-4.4324,-4.4361,-4.4311,-4.436,-4.4427,-4.4463,-4.4533,-4.4594,-4.4639,-4.4644,-4.4583,-4.4575,-4.4602,-4.4619,-4.4627,-4.4622,-4.4244,-4.4567,-4.4564,-4.4562,-4.456,-4.4559,-4.4351,-4.442,-4.4435,-4.4497,-4.4514,-4.4544,-4.4605,-4.4594,-4.465,-4.4703,-4.467,-4.4749,-4.4765,-4.4819,-4.4832,-4.4892,-4.4842,-4.4882,-4.4892,-4.4902,-4.4916,-4.4619,-4.4901,-4.49,-4.4899,-4.4898,-4.4898,0,-4.4646,-4.4651,-4.4709,-4.4753,-4.4802,-4.474,-4.477,-4.4814,-4.4885,-4.4905,-4.4952,-4.5029,-4.5086,-4.5076,-4.5128,-4.5178,-4.5151,-4.5193,-4.5188,-4.519,-4.4958,-4.4929,-4.5214,-4.5214,-4.5214,-4.5214,-4.5214,-4.5214,-4.4805,-4.4916,-4.4899,-4.5017,-4.5021,-4.5098,-4.512,-4.5146,-4.5161,-4.5251,-4.5298,-4.5291,-4.5299,-4.535,-4.54,-4.5395,-4.5417,-4.547,-4.5455,-4.5238,-4.5207,-4.5177,-4.5149,-4.5475,-4.5476,-4.5681,-4.5683,-4.5684]},{"header":{"parameterUnit":"m.s-1","parameterCategory":1,"la1":30.2991,"la2":30.254,"lo1":-89.0895,"lo2":-89.0444,"dy":0.0017,"dx":0.0017,"nx":28,"ny":28,"refTime":"2023-10-31T03:00:00:Z","depth":0,"parameterNumber":3,"parameterNumberName":"V-component_of_WINDS"},"data":[0,0,0,0,0,0,0,0,0,0,0,0,0,0,0,0,0,0,0,0,0,0,0,0,0,0,0,0,0,0,0,0,0,0,0,0,0,0,0,0,0,0,0,0,0,0,0,0,0,0,0,0,0,0,0,0,0,0,-5.9585,-5.9585,0,-5.9663,-5.9664,-5.9665,-5.9572,-5.9569,-5.9565,-5.9562,-5.9637,-5.9642,-5.9647,0,0,0,0,0,0,0,0,0,0,0,0,0,-5.9348,-5.9352,-5.9584,-5.9585,-5.9586,-5.9663,-5.9664,-5.9665,-5.9573,-5.9569,-5.9564,-5.956,-5.9635,-5.9642,-5.9648,0,0,0,0,0,0,0,0,0,0,0,0,0,-5.9441,-5.9354,-5.9584,-5.955,-5.9547,-5.9663,-5.9664,-5.9665,-5.9574,-5.9568,-5.9563,-5.9558,-5.9633,-5.9641,-5.9649,-5.98,0,0,-5.9673,-5.9676,0,0,0,0,0,0,0,0,-5.9435,-5.9449,-5.9554,-5.9552,-5.955,-5.9603,-5.9608,-5.971,-5.9575,-5.9564,-5.9562,-5.9556,-5.9629,-5.9637,-5.9663,-5.9803,-5.9807,-5.9673,-5.9678,-5.9681,-5.9684,0,0,0,0,0,0,0,-5.9429,-5.9445,-5.9615,-5.9555,-5.9553,-5.9528,-5.9535,-5.9627,-5.9624,-5.9564,-5.9558,-5.9568,-5.9627,-5.9656,-5.9664,-5.9808,-5.9673,-5.968,-5.9685,-5.9688,-6.0072,-6.0077,0,0,0,0,0,0,-5.9428,-5.9441,-5.9613,-5.9618,-5.9479,-5.9536,-5.9545,-5.9591,-5.9623,-5.9623,-5.9573,-5.9564,-5.9645,-5.9655,-5.9666,-5.9843,-5.9681,-5.9689,-5.9693,-6.0066,-6.0073,-6.0079,0,0,0,0,0,0,-5.9423,-5.9444,-5.961,-5.9527,-5.9547,-5.9546,-5.9598,-5.9595,-5.9623,-5.963,-5.9628,-5.9603,-5.9641,-5.9655,-5.9767,-5.9844,-5.9692,-5.9699,-6.006,-6.0068,-6.0076,-6.0199,0,0,0,0,0,0,-5.9416,-5.9443,-5.9502,-5.953,-5.9552,-5.9711,-5.9603,-5.96,-5.9638,-5.9627,-5.9657,-5.9657,-5.9638,-5.9756,-5.9775,-5.9852,-5.9705,-6.0053,-6.0063,-6.0073,-6.0187,-6.021,-6.0229,0,0,0,0,0,-5.9408,-5.9533,-5.9506,-5.9527,-5.9626,-5.9716,-5.9728,-5.9705,-5.9645,-5.9703,-5.9706,-5.9656,-5.9833,-5.9768,-5.9788,-5.9869,-6.0048,-6.006,-6.0072,-6.0178,-6.0206,-6.0229,0,0,0,0,0,0,-5.9514,-5.9536,-5.9506,-5.9644,-5.9679,-5.97,-5.9773,-5.9736,-5.9787,-5.9775,-5.9742,-5.975,-5.9868,-5.988,-5.9807,-6.0015,-5.993,-5.9947,-6.0003,-6.0029,-6.005,-6.0043,-5.9712,0,0,0,0,0,-5.9553,-5.9627,-5.9642,-5.9762,-5.9781,-5.9775,-5.9813,-5.9792,-5.9826,-5.984,-5.9851,-5.9885,-5.9947,-5.9989,-6.0047,-6.0189,-6.0192,-6.0255,-6.0275,-6.0292,-6.0307,-6.0379,-6.0406,-6.0119,-6.0119,-6.0119,0,0,-5.9635,-5.9657,-5.9705,-5.9783,-5.9808,-5.9882,-5.9787,-5.987,-5.9924,-5.9852,-5.9957,-5.9967,-6.0002,-6.0128,-6.0184,-6.0142,-6.0387,-6.0308,-6.0322,-6.0327,-6.0395,-6.0422,-6.0446,-6.0128,-6.0126,-6.0125,0,0,-5.9822,-5.9847,-5.9949,-5.9975,-6.0014,-6.0008,-6.0032,-6.0059,-6.0063,-6.0169,-6.0115,-6.0177,-6.0287,-6.0313,-6.034,-6.0534,-6.0489,-6.0554,-6.0662,-6.0733,-6.0755,-6.0775,-6.0841,-6.0866,-6.0569,-6.0569,-6.0569,0,-5.9919,-6.003,-6.0005,-6.0091,-6.0126,-6.0065,-6.0165,-6.0191,-6.0247,-6.0271,-6.0223,-6.0357,-6.0376,-6.0506,-6.0553,-6.0578,-6.0602,-6.055,-6.0755,-6.0774,-6.0792,-6.0855,-6.088,-6.0577,-6.0576,-6.0575,-6.0574,0,-6.0145,-6.0223,-6.0299,-6.0355,-6.0398,-6.0491,-6.0477,-6.0524,-6.0499,-6.0497,-6.0604,-6.0625,-6.0684,-6.0714,-6.069,-6.084,-6.0812,-6.076,-6.0673,-6.0827,-6.0886,-6.091,-6.0587,-6.0585,-6.0582,-6.0581,0,0,-6.0401,-6.044,-6.0468,-6.0491,-6.0529,-6.0587,-6.0675,-6.0735,-6.0774,-6.0813,-6.0885,-6.0978,-6.0929,-6.096,-6.0939,-6.1001,-6.115,-6.0941,-6.0941,-6.0977,-6.1312,-6.1349,-6.1377,-6.1121,-6.1125,-6.1129,-6.1308,0,-6.0586,-6.0741,-6.072,-6.0868,-6.0937,-6.0879,-6.0956,-6.0985,-6.0986,-6.1043,-6.1042,-6.1108,-6.1041,-6.1058,-6.1118,-6.1119,-6.1216,-6.1106,-6.1184,-6.1187,-6.1175,-6.1408,-6.1449,-6.1617,-6.1331,-6.1335,-6.1337,0,-6.0822,-6.0871,-6.1026,-6.105,-6.1078,-6.1148,-6.1199,-6.1255,-6.1286,-6.1281,-6.1316,-6.1282,-6.1367,-6.1281,-6.1396,-6.1322,-6.1352,-6.1357,-6.1363,-6.1367,-6.127,-6.1417,-6.167,-6.1694,-6.1374,-6.1371,-6.1368,0,-6.099,-6.1094,-6.1199,-6.1221,-6.1252,-6.1302,-6.1316,-6.1343,-6.1379,-6.1423,-6.1445,-6.1499,-6.1527,-6.1568,-6.1549,-6.1488,-6.1666,-6.1579,-6.1663,-6.1663,-6.1702,-6.1699,-6.1961,-6.1725,-6.1725,-6.1725,-6.1724,0,-6.1197,-6.1294,-6.1274,-6.1339,-6.1444,-6.1418,-6.1522,-6.1529,-6.1552,-6.1615,-6.1569,-6.1628,-6.16,-6.1657,-6.1642,-6.1738,-6.1752,-6.1748,-6.1743,-6.1752,-6.1752,-6.1769,-6.1756,-6.1731,-6.173,-6.1728,-6.1727,0,-6.1401,-6.1393,-6.1503,-6.1524,-6.1531,-6.1607,-6.1622,-6.1681,-6.1678,-6.1758,-6.1775,-6.1769,-6.1833,-6.1818,-6.1889,-6.1878,-6.1998,-6.1979,-6.1988,-6.1983,-6.2067,-6.2058,-6.2347,-6.2382,-6.2127,-6.2129,-6.2131,0,-6.1533,-6.1606,-6.1634,-6.1673,-6.1692,-6.1756,-6.1792,-6.1768,-6.1808,-6.1847,-6.1901,-6.1961,-6.2008,-6.2112,-6.2113,-6.2165,-6.2145,-6.2243,-6.2153,-6.2158,-6.2144,-6.2139,-6.2144,-6.226,-6.2263,-6.2266,-6.2268,0,-6.1767,-6.1759,-6.1814,-6.1868,-6.1913,-6.1954,-6.199,-6.2024,-6.2002,-6.2048,-6.2114,-6.215,-6.2221,-6.2281,-6.2329,-6.2341,-6.23,-6.2296,-6.2318,-6.2326,-6.2328,-6.2325,-6.2034,-6.2289,-6.2287,-6.2286,-6.2284,-6.2284,-6.1937,-6.1998,-6.2026,-6.2089,-6.2113,-6.2147,-6.2203,-6.2206,-6.2261,-6.2318,-6.23,-6.2374,-6.2399,-6.246,-6.2478,-6.2534,-6.2496,-6.2529,-6.2536,-6.2544,-6.2553,-6.2321,-6.2543,-6.2542,-6.2541,-6.2541,-6.254,0,-6.2166,-6.2181,-6.2239,-6.2291,-6.2339,-6.2298,-6.2335,-6.2377,-6.2443,-6.2472,-6.2519,-6.2592,-6.2649,-6.2654,-6.2706,-6.275,-6.2732,-6.2764,-6.2759,-6.2762,-6.2585,-6.256,-6.2777,-6.2777,-6.2777,-6.2777,-6.2777,-6.2777,-6.2291,-6.2391,-6.2385,-6.2495,-6.2509,-6.2582,-6.2606,-6.2636,-6.2658,-6.2743,-6.279,-6.2793,-6.2811,-6.2864,-6.2913,-6.2913,-6.2933,-6.2972,-6.2964,-6.2799,-6.2775,-6.2752,-6.2728,-6.2977,-6.2978,-6.3136,-6.3138,-6.3139]}]]